This is the latest recevied weather packets stored in our database for station/object N9BSW. If no packets are shown the sender has not sent any weather packets the latest 10 day(s).
| Time | Temp. | Humidity | Pressure | Rain* | Wind** | Luminosity | Snow |
|---|---|---|---|---|---|---|---|
| 1777839196 | 17.78° C | 39% | 1014.2 hPa | 0 mm | - | 204 W/m² | - |
| 1777838894 | 17.78° C | 39% | 1014.1 hPa | 0 mm | - | 271 W/m² | - |
| 1777838589 | 18.33° C | 39% | 1014.5 hPa | 0 mm | - | 409 W/m² | - |
| 1777838287 | 18.33° C | 38% | 1014.6 hPa | 0 mm | - | 697 W/m² | - |
| 1777837983 | 18.33° C | 36% | 1014.8 hPa | 0 mm | - | 514 W/m² | - |
| 1777837681 | 18.33° C | 36% | 1015 hPa | 0 mm | - | 628 W/m² | - |
| 1777837376 | 17.22° C | 40% | 1014.9 hPa | 0 mm | - | 566 W/m² | - |
| 1777837073 | 16.67° C | 40% | 1015.4 hPa | 0 mm | - | 378 W/m² | - |
| 1777836769 | 17.78° C | 39% | 1015.4 hPa | 0 mm | - | 179 W/m² | - |
| 1777836465 | 17.78° C | 39% | 1015.3 hPa | 0 mm | - | 829 W/m² | - |
| 1777836160 | 18.89° C | 37% | 1015.2 hPa | 0 mm | - | 528 W/m² | - |
| 1777835857 | 17.78° C | 38% | 1015.2 hPa | 0 mm | - | 792 W/m² | - |
| 1777835554 | 18.33° C | 36% | 1015.1 hPa | 0 mm | - | 678 W/m² | - |
| 1777835251 | 18.89° C | 38% | 1015.1 hPa | 0 mm | - | 497 W/m² | - |
| 1777834947 | 18.89° C | 37% | 1015.1 hPa | 0 mm | - | 483 W/m² | - |
| 1777834645 | 18.33° C | 37% | 1015.1 hPa | 0 mm | - | 694 W/m² | - |
| 1777834340 | 17.78° C | 39% | 1015.7 hPa | 0 mm | - | 971 W/m² | - |
| 1777834035 | 17.78° C | 41% | 1015.4 hPa | 0 mm | - | 880 W/m² | - |
| 1777833732 | 17.22° C | 39% | 1015.4 hPa | 0 mm | - | 815 W/m² | - |
| 1777833428 | 17.22° C | 38% | 1015.8 hPa | 0 mm | - | 550 W/m² | - |
| 1777833126 | 17.78° C | 37% | 1015.8 hPa | 0 mm | - | 515 W/m² | - |
| 1777832823 | 17.22° C | 38% | 1016 hPa | 0 mm | - | 927 W/m² | - |
| 1777832522 | 16.67° C | 38% | 1016.1 hPa | 0 mm | - | 756 W/m² | - |
| 1777832218 | 16.67° C | 38% | 1016.3 hPa | 0 mm | - | 412 W/m² | - |
| 1777831915 | 16.67° C | 39% | 1016.4 hPa | 0 mm | - | 589 W/m² | - |
* Rain latest hour (hover to see other rain measurements)
** Current wind speed in m/s (hover to see current wind gust speed)